Regional Weather Roundup
Issued by NWS

Home | Current Version | Previous Version | Graphics & Text | Print | Product List | Glossary On
Versions: 1 2 3 4 5 6 7 8 9 10 11 12 13 14 15 16 17 18 19 20 21 22 23 24 25 26 27 28 29 30 31 32 33 34 35 36 37 38 39 40 41 42 43 44 45 46 47 48 49 50
000
ASUS45 KSLC 292310
RWRUT

UTAH REGIONAL WEATHER ROUNDUP
NATIONAL WEATHER SERVICE SALT LAKE CITY UT
500 PM MDT MON SEP 29 2014

UTZ001>011-023>025-300000-

NORTHERN UTAH

CITY           SKY/WX    TMP DP  RH WIND       PRES   REMARKS
HILL AFB       MOSUNNY   61  44  54 W12       29.98S
LOGAN          NOT AVBL
OGDEN          MOSUNNY   61  44  53 W9        29.97R
PROVO AIRPORT  NOT AVBL
SALT LAKE CITY PTSUNNY   60  41  49 SE9       29.97S
VERNAL         PTSUNNY   57  42  57 SW9       29.96F
WENDOVER       PTSUNNY   61  41  48 S9        29.98S
HEBER CITY     PTSUNNY   57  37  47 SW9G17    29.98S
WEST JORDAN    CLOUDY    55  46  71 SE7       30.00R

$$

UTZ012>022-026-027-300000-

SOUTHERN UTAH

CITY           SKY/WX    TMP DP  RH WIND       PRES   REMARKS
BRYCE CANYON   CLOUDY    55  29  36 W15G22    30.10S
CEDAR CITY     CLOUDY    61  37  41 S7        30.02F
MILFORD        CLOUDY    60  40  47 SE7       30.00R
MOAB/CYNLANDS  SUNNY     61  40  45 MISG      29.96F
PRICE          MOSUNNY   56  42  59 S3        30.00S
ST GEORGE      MOCLDY    75  34  22 W8G16     29.95S
KANAB            N/A     66  34  30 S7        30.05S

$$

REGIONAL REPORTS     COLORADO/ARIZONA

CITY           SKY/WX    TMP DP  RH WIND       PRES   REMARKS
CRAIG, CO      LGT RAIN  54  41  61 W10       29.99R
GRAND JUNCTION LGT RAIN  49  43  80 CALM      30.00S
RIFLE          CLOUDY    48  43  82 E12       30.01F
MONTROSE       LGT RAIN  51  42  71 W7        30.04R
CORTEZ         MOSUNNY   59  37  44 W13       30.05S
PAGE, AZ       NOT AVBL
GRAND CANYON   MOSUNNY   61  34  36 VRB5      30.10S
KINGMAN        NOT AVBL
FLAGSTAFF      SUNNY     61  30  31 VRB6      30.11S

$$

REGIONAL REPORTS    NEVADA/IDAHO/WYOMING

CITY           SKY/WX    TMP DP  RH WIND       PRES   REMARKS
LAS VEGAS, NV  MOSUNNY   82  33  17 CALM      29.86F
ELY            CLOUDY    52  38  58 SW8       30.08S
ELKO           CLOUDY    51  43  74 SW9       30.05S
POCATELLO, ID  PTSUNNY   57  46  66 W8        29.98F
BURLEY         CLOUDY    56  45  66 CALM      29.94F
EVANSTON, WY   CLOUDY    51  37  58 VRB3      30.02S
ROCK SPRINGS   PTSUNNY   50  38  63 W12       29.98F

$$



USA.gov is the U.S. government's official web portal to all federal, state and local government web resources and services.